Home > Weather > Podgorica > Past weeks

Flag for Montenegro Weather for the Past 2 Weeks in Podgorica, Montenegro

Now
52 °F

Light rain. Cloudy.


Feels Like: 51 °F
Forecast: 44 / 55 °F
Wind: 3 mph from Northwest

Location: Podgorica Titograd

Current Time: Feb 9, 2016 at 2:55:51 PM

Latest Report: Feb 9, 2016 at 2:00 PM


Visibility: 4 mi

Pressure: 30.12 "Hg

Humidity: 100%

Dew point: 52 °F

Location of PodgoricaLocation

Historic Weather in Podgorica — Graph

°F

Podgorica Temperature Yesterday

Maximum temperature yesterday: 48 °F (at 12:00 PM)
Minimum temperature yesterday: 39 °F (at 3:00 AM)
Average temperature yesterday: 45 °F

High & Low Weather Summary for the Past Weeks

 TemperatureHumidityPressure
High66 °F (Feb 2, 3:00 PM)100% (Jan 30, 1:30 AM)30.48 "Hg (Jan 30, 1:30 AM)
Low30 °F (Feb 7, 3:30 AM)26% (Feb 6, 2:00 PM)29.89 "Hg (Feb 4, 3:00 AM)
Average47 °F75%30.28 "Hg
* Reported Jan 25 1:00 PM — Feb 9 1:00 PM, Podgorica, Weather by CustomWeather, © 2016

Note: Actual official high and low records may vary slightly from our data, if they occured in-between our weather recording intervals... More about our weather records

Advertising

Podgorica Weather History for the Previous 24 Hours

 ConditionsComfort  
Time TempWeatherWind HumidityBarometerVisibility
1:00 PM
Tue, Feb 9
52 °FLight rain. Cloudy.5 mph100%30.12 "Hg5 mi
12:30 PM52 °FRain. Fog.3 mph100%30.15 "Hg3 mi
12:00 PM50 °FRain. Fog.3 mph100%30.15 "Hg2 mi
11:00 AM50 °FLight rain. Cloudy.3 mph100%30.18 "Hg4 mi
10:30 AM50 °FLight rain. Fog.1 mph100%30.18 "Hg3 mi
10:00 AM50 °FRain. Fog.1 mph100%30.18 "Hg2 mi
9:00 AM48 °FLight rain. Mostly cloudy.3 mph100%30.18 "Hg4 mi
8:30 AM48 °FLight rain. Mostly cloudy.3 mph100%30.18 "Hg4 mi
8:00 AM48 °FRain. Fog.5 mph100%30.18 "Hg2 mi
7:00 AM48 °FRain. Fog.3 mph100%30.15 "Hg2 mi
6:30 AM46 °FRain. Fog.3 mph100%30.15 "Hg3 mi
6:00 AM48 °FLight rain. Overcast.2 mph100%30.15 "Hg4 mi
5:30 AM46 °FLight rain. Fog.5 mph100%30.15 "Hg3 mi
5:00 AM46 °FLight rain. Fog.3 mph100%30.15 "Hg2 mi
4:30 AM46 °FLight rain. Fog.2 mph100%30.15 "Hg2 mi
4:00 AM46 °FLight rain. Fog.2 mph100%30.15 "Hg3 mi
3:30 AM46 °FLight rain. Fog.5 mph100%30.15 "Hg1 mi
3:00 AM46 °FLight rain. Fog.2 mph100%30.15 "Hg1 mi
2:30 AM46 °FRain. Fog.2 mph100%30.18 "Hg1 mi
2:00 AM46 °FLight rain. Fog.3 mph100%30.18 "Hg1 mi
1:30 AM46 °FLight rain. Fog.1 mph100%30.18 "Hg1 mi
1:00 AM46 °FRain. Fog.2 mph100%30.21 "Hg0 mi
12:30 AM46 °FRain. Fog.1 mph100%30.21 "Hg0 mi
12:00 AM46 °FLight rain. Fog.2 mph100%30.21 "Hg0 mi
11:00 PM
Mon, Feb 8
46 °FLight rain. Fog.1 mph100%30.21 "Hg1 mi
10:30 PM46 °FLight rain. Fog.1 mph100%30.21 "Hg1 mi
10:00 PM46 °FLight rain. Fog.No wind100%30.21 "Hg1 mi
9:30 PM46 °FLight rain. Fog.No wind100%30.24 "Hg1 mi
9:00 PM46 °FLight rain. Fog.1 mph100%30.24 "Hg1 mi
8:30 PM46 °FCool.2 mph100%30.21 "Hg1 mi
8:00 PM46 °FLight rain. Fog.1 mph100%30.21 "Hg1 mi
7:30 PM46 °FLight rain. Fog.3 mph100%30.21 "Hg1 mi
7:00 PM46 °FRain. Overcast.1 mph100%30.21 "Hg1 mi
6:30 PM46 °FRain. Overcast.1 mph100%30.21 "Hg2 mi
6:00 PM46 °FRain. Fog.1 mph100%30.21 "Hg2 mi
5:30 PM46 °FLight rain. Fog.2 mph100%30.21 "Hg3 mi
5:00 PM46 °FMixture of precip. Fog.1 mph100%30.21 "Hg5 mi
4:30 PM46 °FLight rain. Fog.2 mph100%30.21 "Hg1 mi
4:00 PM48 °FLight rain. Fog.3 mph94%30.21 "Hg1 mi
3:30 PM48 °FLight rain. Fog.2 mph94%30.21 "Hg2 mi
3:00 PM48 °FLight rain. Fog.2 mph94%30.21 "Hg3 mi
2:30 PM48 °FLight rain. Mostly cloudy.1 mph87%30.21 "Hg4 mi
2:00 PM48 °FLight rain. Mostly cloudy.2 mph87%30.21 "Hg4 mi
Weather by CustomWeather, © 2016

See weather overviewHow to use our weather pages